DELTA 1 DEB, 7151

Orbit data source: Space-Track

DELTA 1 DEB, 7151 is space debris in SSO originally from a launch on Tue, 06 Nov 1973 UTC launched from the Air Force Western Test Range (AFWTR). Debris objects in space refer to the collection of defunct objects orbiting the Earth. Examples of debris include non-operational satellites, rocket bodies, and fragments generated from explosions, collisions, or faulty payload assembly.

Loading next visibility...
Identifier
7151, 1973-086DR
Orbit
SSO
Country
Flag of USUS
Related business
Manufacturer
Unknown
Mission
Spacecraft
Bus & Motor
Unknown
Mass
Unknown
Launch date (UTC)
1973-11-06 (52 years ago)
Launch vehicle
Unknown
Launch site
Air Force Western Test Range (AFWTR)
Object type
Payload
Rocket body
Debris
Shape & HBR
Unknown shape, 0.1 m
Radar Cross Section
Small (<0.1 m²)

Expand to show TLE details & history
Last TLE update: 18 hours ago

TLE from 18 hours ago
0 DELTA 1 DEB
1 07151U 73086DR  25293.29187281  .00000036  00000-0  77467-3 0  9990
2 07151 102.7509  58.1138 0156766 148.0616 271.2637 12.17835229305177
Epoch: 2025-10-20T07:00Z
TLE epoch observation values (Epoch: 2025-10-20T07:00:17.810Z)
Latitude
55.46543°
Longitude
-95.05834°
Altitude
1,610.139 km
Speed
7.071 km/s
True Right ascension
02h 36m 02s
True Declination
55° 19' 19"
Sunlit
Object was in full shadow at epoch
Visualization orbit readout
Latitude
Unknown
Longitude
Unknown
Altitude
Unknown
Speed
Unknown
Apparent Right ascension
Unknown
Apparent Declination
Unknown
Sunlit
N/A
Visualization observer readout
Local Sidereal Time
19:30:12
Azimuth
Unknown
Elevation
Unknown
Doppler factor
Unknown
Orbital elements
Apogee altitude
1,724.697 km
Perigee altitude
1,474.568 km
Semi-major axis
7,977.77 km
Eccentricity
0.01568
Inclination
102.7509°
RAAN
58.1138°
Arg. of periapsis
148.0616°
True anomaly
269.46725°
Mean anomaly
271.2637°
Eccentric anomaly
270.36552°
Mean motion
3.04594 °/min
Orbital period
118.19 mins
BSTAR
0.00077467
Loading maneuver chart data...
Computing Atmospheric mass density...
Loading historical data...
Loading historical data...
Loading historical data...
Loading historical data...
Loading historical data...
Loading historical data...
Loading historical data...

Documentation

Showing up to 5 results
|